Berlin, NH

8:19 PM EDT on October 23, 2017 (GMT -0400)
Berlin Municipal

Weather History for KBML - December, 2006

Change the Weather History Date:

Wednesday, December 27, 2006

  Actual Average Record
Temperature  
Mean Temperature 26 °F -  
Max Temperature 32 °F 25 °F 48 °F (2016)
Min Temperature 19 °F 5 °F -2 °F (2002)
Degree Days  
Heating Degree Days 40    
Moisture  
Dew Point 17 °F    
Average Humidity 75    
Maximum Humidity 87    
Minimum Humidity 66    
Precipitation  
Precipitation 0.00 in - - ()
Sea Level Pressure  
Sea Level Pressure 29.79 in    
Wind  
Wind Speed 7 mph (NW)    
Max Wind Speed 10 mph    
Max Gust Speed 20 mph    
Visibility 8 miles    
Events Snow    
Averages and records for this station are not official NWS values.
T = Trace of Precipitation, MM = Missing Value Source: NWS Daily Summary

Daily Weather History Graph

Daily Weather History Graph

Search for Another Location

Airport or City:

Trip Planner

Search our weather history database for the weather conditions in past years. The results will help you decide how hot, cold, wet, or windy it might be!

Date:

Astronomy

Dec. 27, 2006 Rise Set
Actual Time 7:20 AM EST 4:11 PM EST
Civil Twilight 6:47 AM EST 4:44 PM EST
Nautical Twilight 6:10 AM EST 5:21 PM EST
Astronomical Twilight 5:34 AM EST 5:56 PM EST
Moon 11:27 AM EST (12/27) No Moon Set
Length of Visible Light 9h 57m
Length of Day
8h 50m
Waxing Crescent, 51% of the Moon is Illuminated
Dec 27
Waxing Crescent
Jan 3
Full
Jan 11
Last Quarter
Jan 18
New
Jan 25
First Quarter

Hourly Weather History & Observations

Time (EST) Temp. Windchill Dew Point Humidity Pressure Visibility Wind Dir Wind Speed Gust Speed Precip Events Conditions
12:06 AM 32.0 °F 23.6 °F 28.4 °F 87% 29.45 in 10.0 mi NNW 10.4 mph 17.3 mph N/A   Overcast
12:52 AM 30.9 °F 23.5 °F 26.1 °F 82% 29.51 in 10.0 mi NW 8.1 mph 18.4 mph N/A   Overcast
1:52 AM 30.0 °F 23.2 °F 24.1 °F 79% 29.54 in 10.0 mi North 6.9 mph - N/A   Overcast
2:52 AM 28.9 °F 20.4 °F 23.0 °F 78% 29.57 in 10.0 mi NNW 9.2 mph 19.6 mph N/A   Overcast
3:49 AM 28.4 °F 21.2 °F 23.0 °F 80% 29.56 in 10.0 mi NNW 6.9 mph - N/A   Overcast
3:52 AM 28.0 °F 20.8 °F 23.0 °F 81% 29.60 in 10.0 mi NNW 6.9 mph - N/A   Overcast
4:33 AM 28.4 °F 19.7 °F 23.0 °F 80% 29.56 in 10.0 mi North 9.2 mph - N/A   Overcast
4:45 AM 28.4 °F 20.4 °F 23.0 °F 80% 29.56 in 10.0 mi NNW 8.1 mph - N/A   Overcast
4:52 AM 28.0 °F 20.0 °F 23.0 °F 81% 29.60 in 10.0 mi NNW 8.1 mph - N/A   Overcast
4:59 AM 28.4 °F 19.7 °F 21.2 °F 74% 29.56 in 10.0 mi NNW 9.2 mph 16.1 mph N/A   Overcast
6:52 AM 28.0 °F 22.8 °F 23.0 °F 81% 29.65 in 10.0 mi NNW 4.6 mph - N/A   Overcast
7:52 AM 27.0 °F 19.5 °F 21.9 °F 81% 29.69 in 9.0 mi NNW 6.9 mph - 0.00 in Snow Light Snow
8:52 AM 26.1 °F 20.5 °F 21.0 °F 81% 29.73 in 4.0 mi NNW 4.6 mph - 0.00 in Snow Light Snow
9:13 AM 26.6 °F - 21.2 °F 80% 29.68 in 5.0 mi Calm Calm - 0.00 in Snow Light Snow
9:52 AM 26.1 °F 21.9 °F 19.9 °F 78% 29.73 in 10.0 mi Variable 3.5 mph - 0.00 in   Overcast
10:52 AM 26.1 °F 16.8 °F 18.0 °F 71% 29.73 in 10.0 mi West 9.2 mph - N/A   Overcast
11:52 AM 27.0 °F 18.0 °F 17.1 °F 66% 29.73 in 10.0 mi WNW 9.2 mph - N/A   Overcast
12:52 PM 25.0 °F 15.5 °F 16.0 °F 69% 29.75 in 10.0 mi West 9.2 mph 19.6 mph N/A   Overcast
1:52 PM 25.0 °F 16.3 °F 16.0 °F 69% 29.77 in 10.0 mi West 8.1 mph - N/A   Overcast
2:25 PM 24.8 °F 16.9 °F 15.8 °F 69% 29.74 in 4.0 mi Variable 6.9 mph - 0.00 in Snow Light Snow
2:34 PM 24.8 °F 16.9 °F 15.8 °F 69% 29.74 in 8.0 mi Variable 6.9 mph - 0.00 in   Overcast
2:52 PM 24.1 °F 15.2 °F 15.1 °F 69% 29.80 in 9.0 mi West 8.1 mph - 0.00 in   Overcast
3:02 PM 24.8 °F 17.9 °F 15.8 °F 69% 29.75 in 10.0 mi West 5.8 mph - N/A   Overcast
3:12 PM 24.8 °F 17.9 °F 15.8 °F 69% 29.76 in 10.0 mi West 5.8 mph - N/A   Overcast
3:38 PM 24.8 °F 17.9 °F 15.8 °F 69% 29.78 in 5.0 mi Variable 5.8 mph 18.4 mph 0.00 in Snow Light Snow
3:52 PM 23.0 °F 15.8 °F 15.1 °F 72% 29.84 in 4.0 mi Variable 5.8 mph - 0.00 in Snow Light Snow
4:52 PM 23.0 °F 14.7 °F 15.1 °F 72% 29.87 in 10.0 mi NW 6.9 mph - 0.00 in   Overcast
5:37 PM 21.2 °F 13.6 °F 15.8 °F 80% 29.84 in 5.0 mi WNW 5.8 mph - 0.00 in Snow Light Snow
5:52 PM 21.9 °F 14.5 °F 15.1 °F 75% 29.90 in 8.0 mi WNW 5.8 mph - 0.00 in   Overcast
6:07 PM 21.2 °F 13.6 °F 15.8 °F 80% 29.86 in 10.0 mi WNW 5.8 mph - N/A   Overcast
6:44 PM 21.2 °F - 14.0 °F 74% 29.88 in 10.0 mi Calm Calm - N/A   Overcast
6:52 PM 21.0 °F - 14.0 °F 74% 29.93 in 8.0 mi Calm Calm - 0.00 in Snow Light Snow
7:04 PM 21.2 °F - 15.8 °F 80% 29.88 in 4.0 mi Calm Calm - 0.00 in Snow Light Snow
7:40 PM 21.2 °F - 14.0 °F 74% 29.90 in 10.0 mi Calm Calm - 0.00 in   Overcast
7:52 PM 21.0 °F - 12.9 °F 71% 29.96 in 10.0 mi Calm Calm - 0.00 in   Overcast
8:23 PM 19.4 °F 11.5 °F 12.2 °F 74% 29.92 in 5.0 mi NW 5.8 mph - 0.00 in Snow Light Snow
8:52 PM 19.9 °F 13.4 °F 14.0 °F 78% 29.99 in 3.0 mi WNW 4.6 mph - 0.00 in Snow Light Snow
9:00 PM 19.4 °F 14.3 °F 14.0 °F 80% 29.94 in 2.5 mi WNW 3.5 mph - 0.00 in Snow Light Snow
9:12 PM 19.4 °F - 14.0 °F 80% 29.95 in 4.0 mi Calm Calm - 0.00 in Snow Light Snow
9:33 PM 19.4 °F 14.3 °F 12.2 °F 74% 29.96 in 8.0 mi Variable 3.5 mph - 0.00 in   Overcast
9:52 PM 19.9 °F 12.1 °F 12.9 °F 74% 30.03 in 7.0 mi Variable 5.8 mph - 0.00 in Snow Light Snow
10:52 PM 19.9 °F 9.3 °F 12.9 °F 74% 30.05 in 4.0 mi WNW 9.2 mph - 0.00 in Snow Light Snow
11:18 PM 19.4 °F 8.6 °F 12.2 °F 74% 30.00 in 3.0 mi NW 9.2 mph - 0.00 in Snow Light Snow
11:25 PM 19.4 °F 9.5 °F 12.2 °F 74% 30.00 in 2.5 mi WNW 8.1 mph - 0.00 in Snow Light Snow
11:31 PM 19.4 °F 12.8 °F 12.2 °F 74% 30.00 in 3.0 mi WNW 4.6 mph - 0.00 in Snow Light Snow
11:52 PM 19.0 °F 10.0 °F 10.9 °F 71% 30.06 in 9.0 mi WNW 6.9 mph - 0.00 in   Overcast